Time,TemperatureF,DewpointF,PressureIn,WindDirection,WindDirectionDegrees,WindSpeedMPH,WindSpeedGustMPH,Humidity,HourlyPrecipIn,Conditions,Clouds,dailyrainin,SoftwareType,DateUTC
2014-02-20 00:14:00,-999.0,-99.9,29.89,North,-999,-999.0,-999.0,-999,-99.99,,,0.00,weatherlink.com 1.10,2014-02-20 05:14:00,
2014-02-20 00:29:00,-999.0,-99.9,29.90,North,-999,-999.0,-999.0,-999,-99.99,,,0.00,weatherlink.com 1.10,2014-02-20 05:29:00,
2014-02-20 00:44:00,-999.0,-99.9,29.90,North,-999,-999.0,-999.0,-999,-99.99,,,0.00,weatherlink.com 1.10,2014-02-20 05:44:00,
2014-02-20 01:00:00,-999.0,-99.9,29.91,North,-999,-999.0,-999.0,-999,-99.99,,,0.00,weatherlink.com 1.10,2014-02-20 06:00:00,
2014-02-20 01:15:00,-999.0,-99.9,29.92,North,-999,-999.0,-999.0,-999,-99.99,,,0.00,weatherlink.com 1.10,2014-02-20 06:15:00,
2014-02-20 01:30:00,-999.0,-99.9,29.93,North,-999,-999.0,-999.0,-999,-99.99,,,0.00,weatherlink.com 1.10,2014-02-20 06:30:00,
2014-02-20 01:45:00,-999.0,-99.9,29.93,North,-999,-999.0,-999.0,-999,-99.99,,,0.00,weatherlink.com 1.10,2014-02-20 06:45:00,
2014-02-20 02:00:00,-999.0,-99.9,29.94,North,-999,-999.0,-999.0,-999,-99.99,,,0.00,weatherlink.com 1.10,2014-02-20 07:00:00,
2014-02-20 02:15:00,-999.0,-99.9,29.95,North,-999,-999.0,-999.0,-999,-99.99,,,0.00,weatherlink.com 1.10,2014-02-20 07:15:00,
2014-02-20 02:30:00,-999.0,-99.9,29.95,North,-999,-999.0,-999.0,-999,-99.99,,,0.00,weatherlink.com 1.10,2014-02-20 07:30:00,
2014-02-20 02:45:00,-999.0,-99.9,29.96,North,-999,-999.0,-999.0,-999,-99.99,,,0.00,weatherlink.com 1.10,2014-02-20 07:45:00,
2014-02-20 03:00:00,-999.0,-99.9,29.96,North,-999,-999.0,-999.0,-999,-99.99,,,0.00,weatherlink.com 1.10,2014-02-20 08:00:00,
2014-02-20 03:15:00,-999.0,-99.9,29.96,North,-999,-999.0,-999.0,-999,-99.99,,,0.00,weatherlink.com 1.10,2014-02-20 08:15:00,
2014-02-20 03:30:00,-999.0,-99.9,29.95,North,-999,-999.0,-999.0,-999,-99.99,,,0.00,weatherlink.com 1.10,2014-02-20 08:30:00,
2014-02-20 03:45:00,-999.0,-99.9,29.95,North,-999,-999.0,-999.0,-999,-99.99,,,0.00,weatherlink.com 1.10,2014-02-20 08:45:00,
2014-02-20 04:00:00,-999.0,-99.9,29.95,North,-999,-999.0,-999.0,-999,-99.99,,,0.00,weatherlink.com 1.10,2014-02-20 09:00:00,
2014-02-20 04:16:00,-999.0,-99.9,29.95,North,-999,-999.0,-999.0,-999,-99.99,,,0.00,weatherlink.com 1.10,2014-02-20 09:16:00,
2014-02-20 04:31:00,-999.0,-99.9,29.94,North,-999,-999.0,-999.0,-999,-99.99,,,0.00,weatherlink.com 1.10,2014-02-20 09:31:00,
2014-02-20 04:46:00,-999.0,-99.9,29.94,North,-999,-999.0,-999.0,-999,-99.99,,,0.00,weatherlink.com 1.10,2014-02-20 09:46:00,
2014-02-20 05:01:00,-999.0,-99.9,29.94,North,-999,-999.0,-999.0,-999,-99.99,,,0.00,weatherlink.com 1.10,2014-02-20 10:01:00,
2014-02-20 05:16:00,-999.0,-99.9,29.94,North,-999,-999.0,-999.0,-999,-99.99,,,0.00,weatherlink.com 1.10,2014-02-20 10:16:00,
2014-02-20 05:31:00,-999.0,-99.9,29.94,North,-999,-999.0,-999.0,-999,-99.99,,,0.00,weatherlink.com 1.10,2014-02-20 10:31:00,
2014-02-20 05:46:00,-999.0,-99.9,29.93,North,-999,-999.0,-999.0,-999,-99.99,,,0.00,weatherlink.com 1.10,2014-02-20 10:46:00,
2014-02-20 06:01:00,-999.0,-99.9,29.95,North,-999,-999.0,-999.0,-999,-99.99,,,0.00,weatherlink.com 1.10,2014-02-20 11:01:00,
2014-02-20 06:16:00,-999.0,-99.9,29.95,North,-999,-999.0,-999.0,-999,-99.99,,,0.00,weatherlink.com 1.10,2014-02-20 11:16:00,
2014-02-20 06:31:00,-999.0,-99.9,29.95,North,-999,-999.0,-999.0,-999,-99.99,,,0.00,weatherlink.com 1.10,2014-02-20 11:31:00,
2014-02-20 06:46:00,-999.0,-99.9,29.94,North,-999,-999.0,-999.0,-999,-99.99,,,0.00,weatherlink.com 1.10,2014-02-20 11:46:00,
2014-02-20 07:01:00,-999.0,-99.9,29.93,North,-999,-999.0,-999.0,-999,-99.99,,,0.00,weatherlink.com 1.10,2014-02-20 12:01:00,
2014-02-20 07:16:00,-999.0,-99.9,29.93,North,-999,-999.0,-999.0,-999,-99.99,,,0.00,weatherlink.com 1.10,2014-02-20 12:16:00,
2014-02-20 07:31:00,-999.0,-99.9,29.92,North,-999,-999.0,-999.0,-999,-99.99,,,0.00,weatherlink.com 1.10,2014-02-20 12:31:00,
2014-02-20 07:47:00,-999.0,-99.9,29.92,North,-999,-999.0,-999.0,-999,-99.99,,,0.00,weatherlink.com 1.10,2014-02-20 12:47:00,
2014-02-20 08:02:00,-999.0,-99.9,29.92,North,-999,-999.0,-999.0,-999,-99.99,,,0.00,weatherlink.com 1.10,2014-02-20 13:02:00,
2014-02-20 08:17:00,-999.0,-99.9,29.92,North,-999,-999.0,-999.0,-999,-99.99,,,0.00,weatherlink.com 1.10,2014-02-20 13:17:00,
2014-02-20 08:32:00,-999.0,-99.9,29.92,North,-999,-999.0,-999.0,-999,-99.99,,,0.00,weatherlink.com 1.10,2014-02-20 13:32:00,
2014-02-20 08:47:00,-999.0,-99.9,29.92,North,-999,-999.0,-999.0,-999,-99.99,,,0.00,weatherlink.com 1.10,2014-02-20 13:47:00,
2014-02-20 09:02:00,-999.0,-99.9,29.93,North,-999,-999.0,-999.0,-999,-99.99,,,0.00,weatherlink.com 1.10,2014-02-20 14:02:00,
2014-02-20 09:17:00,-999.0,-99.9,29.93,North,-999,-999.0,-999.0,-999,-99.99,,,0.00,weatherlink.com 1.10,2014-02-20 14:17:00,
2014-02-20 09:32:00,-999.0,-99.9,29.93,North,-999,-999.0,-999.0,-999,-99.99,,,0.00,weatherlink.com 1.10,2014-02-20 14:32:00,
2014-02-20 09:47:00,27.5,25.0,29.92,ESE,118,11.0,-999.0,89,-99.99,,,0.00,weatherlink.com 1.10,2014-02-20 14:47:00,
2014-02-20 10:02:00,27.5,25.0,29.92,ESE,118,7.0,-999.0,89,-99.99,,,0.00,weatherlink.com 1.10,2014-02-20 15:02:00,
2014-02-20 10:17:00,27.4,25.0,29.93,ESE,106,12.0,-999.0,90,-99.99,,,0.00,weatherlink.com 1.10,2014-02-20 15:17:00,
2014-02-20 10:32:00,26.9,25.0,29.93,ENE,71,4.0,-999.0,91,-99.99,,,0.00,weatherlink.com 1.10,2014-02-20 15:32:00,
2014-02-20 10:47:00,26.6,24.0,29.93,East,101,4.0,-999.0,91,-99.99,,,0.00,weatherlink.com 1.10,2014-02-20 15:47:00,
2014-02-20 11:02:00,26.6,24.0,29.93,East,80,6.0,-999.0,91,-99.99,,,0.00,weatherlink.com 1.10,2014-02-20 16:02:00,
2014-02-20 11:17:00,26.9,24.0,29.91,ENE,74,9.0,-999.0,90,-99.99,,,0.00,weatherlink.com 1.10,2014-02-20 16:17:00,
2014-02-20 11:32:00,27.4,25.0,29.91,ESE,106,11.0,-999.0,90,-99.99,,,0.00,weatherlink.com 1.10,2014-02-20 16:32:00,
2014-02-20 11:47:00,27.5,25.0,29.90,East,98,3.0,-999.0,90,-99.99,,,0.00,weatherlink.com 1.10,2014-02-20 16:47:00,
2014-02-20 12:02:00,27.9,25.0,29.89,East,88,7.0,-999.0,90,-99.99,,,0.00,weatherlink.com 1.10,2014-02-20 17:02:00,
2014-02-20 12:17:00,28.0,26.0,29.89,East,97,4.0,-999.0,90,-99.99,,,0.00,weatherlink.com 1.10,2014-02-20 17:17:00,
2014-02-20 12:32:00,28.5,26.0,29.88,SE,138,7.0,-999.0,90,-99.99,,,0.00,weatherlink.com 1.10,2014-02-20 17:32:00,
2014-02-20 12:47:00,28.6,26.0,29.88,SE,140,10.0,-999.0,91,-99.99,,,0.00,weatherlink.com 1.10,2014-02-20 17:47:00,
2014-02-20 13:02:00,29.0,27.0,29.88,East,98,4.0,-999.0,91,-99.99,,,0.00,weatherlink.com 1.10,2014-02-20 18:02:00,
2014-02-20 13:17:00,29.6,27.0,29.87,East,92,9.0,-999.0,91,-99.99,,,0.00,weatherlink.com 1.10,2014-02-20 18:17:00,
2014-02-20 13:32:00,30.2,28.0,29.85,East,83,5.0,-999.0,91,-99.99,,,0.00,weatherlink.com 1.10,2014-02-20 18:32:00,
2014-02-20 13:47:00,30.3,28.0,29.83,East,81,10.0,-999.0,91,-99.99,,,0.00,weatherlink.com 1.10,2014-02-20 18:47:00,
2014-02-20 14:03:00,30.2,28.0,29.82,East,98,9.0,-999.0,92,-99.99,,,0.00,weatherlink.com 1.10,2014-02-20 19:03:00,
2014-02-20 14:18:00,29.8,28.0,29.82,ESE,103,5.0,-999.0,92,-99.99,,,0.00,weatherlink.com 1.10,2014-02-20 19:18:00,
2014-02-20 14:33:00,29.9,28.0,29.81,East,80,7.0,-999.0,93,-99.99,,,0.00,weatherlink.com 1.10,2014-02-20 19:33:00,
2014-02-20 14:48:00,29.9,28.0,29.81,SE,137,20.0,-999.0,94,-99.99,,,0.00,weatherlink.com 1.10,2014-02-20 19:48:00,
2014-02-20 15:03:00,30.0,29.0,29.80,SE,126,14.0,-999.0,94,-99.99,,,0.00,weatherlink.com 1.10,2014-02-20 20:03:00,
2014-02-20 15:18:00,30.0,29.0,29.80,East,92,7.0,-999.0,95,-99.99,,,0.00,weatherlink.com 1.10,2014-02-20 20:18:00,
2014-02-20 15:33:00,30.1,29.0,29.79,East,89,15.0,-999.0,95,-99.99,,,0.00,weatherlink.com 1.10,2014-02-20 20:33:00,
2014-02-20 15:48:00,30.2,29.0,29.78,ESE,119,9.0,-999.0,95,-99.99,,,0.00,weatherlink.com 1.10,2014-02-20 20:48:00,
2014-02-20 16:03:00,30.2,29.0,29.77,East,90,18.0,-999.0,95,-99.99,,,0.00,weatherlink.com 1.10,2014-02-20 21:03:00,
2014-02-20 16:18:00,30.4,29.0,29.77,ESE,113,11.0,-999.0,95,-99.99,,,0.00,weatherlink.com 1.10,2014-02-20 21:18:00,
2014-02-20 16:33:00,30.5,29.0,29.76,ESE,123,7.0,-999.0,95,-99.99,,,0.00,weatherlink.com 1.10,2014-02-20 21:33:00,
2014-02-20 16:48:00,30.6,29.0,29.76,ESE,111,7.0,-999.0,95,-99.99,,,0.00,weatherlink.com 1.10,2014-02-20 21:48:00,
2014-02-20 17:03:00,30.7,30.0,29.75,ESE,110,14.0,-999.0,95,-99.99,,,0.00,weatherlink.com 1.10,2014-02-20 22:03:00,
2014-02-20 17:18:00,30.6,29.0,29.75,SE,133,13.0,-999.0,95,-99.99,,,0.00,weatherlink.com 1.10,2014-02-20 22:18:00,
2014-02-20 17:33:00,30.6,29.0,29.73,ESE,115,10.0,-999.0,95,-99.99,,,0.00,weatherlink.com 1.10,2014-02-20 22:33:00,
2014-02-20 17:48:00,30.7,30.0,29.72,ESE,121,13.0,-999.0,95,-99.99,,,0.00,weatherlink.com 1.10,2014-02-20 22:48:00,
2014-02-20 18:03:00,30.7,30.0,29.69,East,84,5.0,-999.0,95,-99.99,,,0.00,weatherlink.com 1.10,2014-02-20 23:03:00,
2014-02-20 18:18:00,-999.0,-99.9,29.70,North,-999,-999.0,-999.0,-999,-99.99,,,0.00,weatherlink.com 1.10,2014-02-20 23:18:00,
2014-02-20 18:33:00,-999.0,-99.9,29.69,North,-999,-999.0,-999.0,-999,-99.99,,,0.00,weatherlink.com 1.10,2014-02-20 23:33:00,
2014-02-20 18:48:00,-999.0,-99.9,29.67,North,-999,-999.0,-999.0,-999,-99.99,,,0.00,weatherlink.com 1.10,2014-02-20 23:48:00,
2014-02-20 19:03:00,-999.0,-99.9,29.65,North,-999,-999.0,-999.0,-999,-99.99,,,0.00,weatherlink.com 1.10,2014-02-21 00:03:00,
2014-02-20 19:18:00,-999.0,-99.9,29.63,North,-999,-999.0,-999.0,-999,-99.99,,,0.00,weatherlink.com 1.10,2014-02-21 00:18:00,
2014-02-20 19:33:00,-999.0,-99.9,29.61,North,-999,-999.0,-999.0,-999,-99.99,,,0.00,weatherlink.com 1.10,2014-02-21 00:33:00,
2014-02-20 19:49:00,-999.0,-99.9,29.60,North,-999,-999.0,-999.0,-999,-99.99,,,0.00,weatherlink.com 1.10,2014-02-21 00:49:00,
2014-02-20 20:04:00,-999.0,-99.9,29.58,North,-999,-999.0,-999.0,-999,-99.99,,,0.00,weatherlink.com 1.10,2014-02-21 01:04:00,
2014-02-20 20:19:00,-999.0,-99.9,29.55,North,-999,-999.0,-999.0,-999,-99.99,,,0.00,weatherlink.com 1.10,2014-02-21 01:19:00,
2014-02-20 20:34:00,-999.0,-99.9,29.53,North,-999,-999.0,-999.0,-999,-99.99,,,0.00,weatherlink.com 1.10,2014-02-21 01:34:00,
2014-02-20 20:49:00,-999.0,-99.9,29.55,North,-999,-999.0,-999.0,-999,-99.99,,,0.00,weatherlink.com 1.10,2014-02-21 01:49:00,
2014-02-20 21:04:00,-999.0,-99.9,29.51,North,-999,-999.0,-999.0,-999,-99.99,,,0.00,weatherlink.com 1.10,2014-02-21 02:04:00,
2014-02-20 21:19:00,-999.0,-99.9,29.49,North,-999,-999.0,-999.0,-999,-99.99,,,0.00,weatherlink.com 1.10,2014-02-21 02:19:00,
2014-02-20 21:34:00,-999.0,-99.9,29.49,North,-999,-999.0,-999.0,-999,-99.99,,,0.00,weatherlink.com 1.10,2014-02-21 02:34:00,
2014-02-20 21:49:00,-999.0,-99.9,29.46,North,-999,-999.0,-999.0,-999,-99.99,,,0.00,weatherlink.com 1.10,2014-02-21 02:49:00,
2014-02-20 22:04:00,-999.0,-99.9,29.47,North,-999,-999.0,-999.0,-999,-99.99,,,0.00,weatherlink.com 1.10,2014-02-21 03:04:00,
2014-02-20 22:19:00,-999.0,-99.9,29.43,North,-999,-999.0,-999.0,-999,-99.99,,,0.00,weatherlink.com 1.10,2014-02-21 03:19:00,
2014-02-20 22:34:00,-999.0,-99.9,29.43,North,-999,-999.0,-999.0,-999,-99.99,,,0.00,weatherlink.com 1.10,2014-02-21 03:34:00,
2014-02-20 22:49:00,-999.0,-99.9,29.40,North,-999,-999.0,-999.0,-999,-99.99,,,0.00,weatherlink.com 1.10,2014-02-21 03:49:00,
2014-02-20 23:04:00,-999.0,-99.9,29.38,North,-999,-999.0,-999.0,-999,-99.99,,,0.00,weatherlink.com 1.10,2014-02-21 04:04:00,
2014-02-20 23:20:00,-999.0,-99.9,29.37,North,-999,-999.0,-999.0,-999,-99.99,,,0.00,weatherlink.com 1.10,2014-02-21 04:20:00,
2014-02-20 23:35:00,-999.0,-99.9,29.37,North,-999,-999.0,-999.0,-999,-99.99,,,0.00,weatherlink.com 1.10,2014-02-21 04:35:00,
2014-02-20 23:50:00,-999.0,-99.9,29.33,North,-999,-999.0,-999.0,-999,-99.99,,,0.00,weatherlink.com 1.10,2014-02-21 04:50:00,